Regional Weather Roundup
Issued by NWS

Home | Current Version | Previous Version | Graphics & Text | Print | Product List | Glossary On
Versions: 1 2 3 4 5 6 7 8 9 10 11 12 13 14 15 16 17 18 19 20 21 22 23 24 25 26 27 28 29 30 31 32 33 34 35 36 37 38 39 40 41 42 43 44 45 46 47 48 49 50
000
ASUS44 KMEG 262110
RWRTN
TENNESSEE HOURLY STATE WEATHER ROUNDUP
NATIONAL WEATHER SERVICE MEMPHIS TN
400 PM CDT FRI AUG 26 2016

TNZ002-004-019-021-049-052-054-088>092-262200-
WEST TENNESSEE

CITY           SKY/WX    TMP DP  RH WIND       PRES   REMARKS
MEMPHIS INTL   LGT RAIN  79  73  82 SE10      30.07R
NWS MEMPHIS      N/A     75 N/A N/A MISG        N/A
JACKSON        CLOUDY    75  74  96 CALM      30.04F THUNDER
DYERSBURG      CLOUDY   N/A N/A N/A MISG      30.03R THUNDER
UNION CITY     MOSUNNY   90  77  66 N10       30.01S HX 102
PARIS          SUNNY     84  75  74 E3        30.04F HX  92
$$

TNZ008-025-027-028-033-062-065-066-262200-
NORTH MIDDLE TENNESSEE

CITY           SKY/WX    TMP DP  RH WIND       PRES   REMARKS
NASHVILLE      MOSUNNY   94  71  47 E8        30.02F HX 101
CLARKSVILLE    CLOUDY    91  75  59 E3        30.03F HX 101
SMYRNA         MOSUNNY   93  70  46 MISG      30.03F HX  99
COOKEVILLE     SUNNY     93  73  52 N5        30.05S HX 102
CROSSVILLE     MOSUNNY   89  68  49 VRB6      30.13S HX  93
$$

TNZ061-075-076-078-094-096-097-262200-
SOUTH MIDDLE TENNESSEE

CITY           SKY/WX    TMP DP  RH WIND       PRES   REMARKS
FAYETTEVILLE   SUNNY     91  73  55 VRB5      30.02F HX 100
TULLAHOMA      MOSUNNY   91  66  43 E14       30.05F HX  94
WINCHESTER     MOSUNNY   91  72  52 E3        30.03S HX  98
MCMINNVILLE    MOSUNNY   93  75  55 NE7       30.05F HX 104
COLUMBIA       MOSUNNY   93  75  55 E9        30.00F HX 104
SHELBYVILLE    SUNNY     93  75  55 E7        30.03F HX 104
$$

TNZ017-018-042-046-047-262200-
NORTHEAST TENNESSEE

CITY           SKY/WX    TMP DP  RH WIND       PRES   REMARKS
TRI CITIES     MOSUNNY   91  67  44 E6        30.11F HX  94
ELIZABETHTON   SUNNY     90  68  48 VRB3      30.10F HX  93
$$

TNZ012-013-036-069-073-074-262200-
CENTRAL EAST TENNESSEE

CITY           SKY/WX    TMP DP  RH WIND       PRES   REMARKS
KNOXVILLE      MOSUNNY   94  66  39 NE13      30.04F HX  97
GATLINBURG     SUNNY     91  66  43 E12       30.05F HX  94
MORRISTOWN     MOSUNNY   91  68  46 E10G17    30.08F HX  95
$$

TNZ083-085-099-262200-
SOUTHEAST TENNESSEE

CITY           SKY/WX    TMP DP  RH WIND       PRES   REMARKS
CHATTANOOGA    TSTM      89  71  55 E12G20    30.02S HX  95
$$

SKY/WX REPORTED AS FAIR MEANS FEW OR NO CLOUDS BELOW
12 THOUSAND FEET.





USA.gov is the U.S. government's official web portal to all federal, state and local government web resources and services.